Stations météo

Publicité
Alanya, Turquie (17310): Température de l'air & dewpoint: 12.01.2018 15:00:00 - 18.01.2018 15:00:00 (EET)Alanya, Turquie (17310): Vitesse du vent: 12.01.2018 15:00:00 - 18.01.2018 15:00:00 (EET)Alanya, Turquie (17310): Direction du vent: 12.01.2018 15:00:00 - 18.01.2018 15:00:00 (EET)Alanya, Turquie (17310): reduced air pressure: 12.01.2018 15:00:00 - 18.01.2018 15:00:00 (EET)Alanya, Turquie (17310): visibility: 12.01.2018 15:00:00 - 18.01.2018 15:00:00 (EET)
Date & Time tt [°C] td [°C] ff [km/h] ff [knt] dd ppp [hPa] vv [km]
18.01.2018 15:00:00 16,3 12,6 16 9 SW 994,2 20
18.01.2018 14:00:00 15,7 15,6 21 11 S 994,9 20
18.01.2018 13:00:00 15,5 15,5 13 7 SSW 996,6 15
18.01.2018 12:00:00 17,1 17,1 26 14 S 997,6 20
18.01.2018 11:00:00 17,2 17,0 28 15 SSW 999,7 20
18.01.2018 10:00:00 17,1 17,1 28 15 SSW 1000,6 20
18.01.2018 09:00:00 16,9 16,7 34 18 SSW 1001,3 20
18.01.2018 08:00:00 16,0 15,8 21 11 S 1002,0 15
18.01.2018 07:00:00 15,1 14,9 15 8 SW 1003,4 6
18.01.2018 06:00:00 16,7 16,5 18 10 SSW 1004,0 20
18.01.2018 05:00:00 16,7 16,7 13 7 SW 1004,6 20
18.01.2018 04:00:00 14,0 13,8 4 2 SW 1005,2 15
18.01.2018 03:00:00 13,1 12,9 9 5 ENE 1006,0 8
18.01.2018 02:00:00 12,9 12,7 5 3 NE 1007,4 15
18.01.2018 01:00:00 13,0 12,8 5 3 E 1007,8 10
18.01.2018 00:00:00 12,6 12,4 5 3 NE 1009,1 12
17.01.2018 23:00:00 12,8 12,8 4 2 S 1010,0 8
17.01.2018 22:00:00 13,8 13,6 2 1 E 1010,1 8
17.01.2018 21:00:00 14,5 14,3 16 9 S 1010,5 15
17.01.2018 20:00:00 15,6 13,7 5 3 SSW 1010,9 20
17.01.2018 19:00:00 15,4 13,2 8 4 SSW 1010,8 20
17.01.2018 18:00:00 15,4 13,2 5 3 SE 1010,8 20
17.01.2018 17:00:00 15,8 14,3 5 3 SE 1010,6 20
17.01.2018 16:00:00 16,1 13,9 4 2 S 1011,2 20
17.01.2018 15:00:00 16,5 14,8 8 4 S 1011,8 20
17.01.2018 14:00:00 16,4 11,8 8 4 SSW 1011,9 20
17.01.2018 13:00:00 16,2 11,0 4 2 SSE 1012,1 20
17.01.2018 12:00:00 15,8 9,9 5 3 E 1012,7 20
17.01.2018 11:00:00 15,9 13,2 5 3 ESE 1013,7 20
17.01.2018 10:00:00 13,5 12,5 5 3 E 1014,0 20
17.01.2018 09:00:00 12,3 12,3 5 3 ENE 1013,4 20
17.01.2018 08:00:00 11,0 10,8 4 2 NNE 1014,0 15
17.01.2018 07:00:00 11,5 11,3 2 1 W 1014,1 7
17.01.2018 06:00:00 11,7 11,6 4 2 E 1013,5 8
17.01.2018 05:00:00 11,2 11,0 5 3 E 1013,7 20
17.01.2018 04:00:00 11,3 11,1 5 3 ENE 1014,5 8
17.01.2018 03:00:00 11,1 10,9 4 2 E 1015,2 7
17.01.2018 02:00:00 12,0 10,2 8 4 ENE 1015,4 7
17.01.2018 01:00:00 12,3 12,1 4 2 E 1016,0 8
17.01.2018 00:00:00 12,7 12,5 5 3 E 1017,0 8
16.01.2018 23:00:00 13,9 9,5 2 1 ENE 1017,0 20
16.01.2018 22:00:00 13,8 9,8 4 2 E 1017,8 20
16.01.2018 21:00:00 13,6 10,2 4 2 E 1018,2 20
16.01.2018 20:00:00 13,6 10,9 2 1 E 1018,4 8
16.01.2018 19:00:00 14,2 9,0 2 1 ENE 1018,6 20
16.01.2018 18:00:00 13,4 11,7 2 1 NNE 1018,9 15
16.01.2018 17:00:00 15,0 10,0 5 3 NE 1018,9 15
16.01.2018 16:00:00 15,2 11,6 5 3 E 1019,3 15
16.01.2018 15:00:00 16,6 7,8 2 1 SE 1019,8 20
16.01.2018 14:00:00 16,7 7,6 2 1 ESE 1020,3 20
16.01.2018 13:00:00 16,6 8,8 2 1 SSE 1021,2 20
16.01.2018 12:00:00 16,8 9,7 4 2 NE 1022,4 20
16.01.2018 11:00:00 16,5 8,7 4 2 E 1023,2 20
16.01.2018 10:00:00 17,2 8,9 2 1 E 1023,5 20
16.01.2018 09:00:00 13,8 7,4 4 2 E 1023,4 20
16.01.2018 08:00:00 12,5 7,2 5 3 E 1023,1 20
16.01.2018 07:00:00 12,3 7,6 5 3 E 1023,0 20
16.01.2018 06:00:00 12,7 6,3 4 2 E 1022,9 20
16.01.2018 05:00:00 12,5 4,2 5 3 ENE 1022,8 20
16.01.2018 04:00:00 12,5 4,7 5 3 E 1023,0 20
16.01.2018 03:00:00 12,0 5,2 4 2 ENE 1023,5 20
16.01.2018 02:00:00 12,0 5,0 4 2 ENE 1023,6 20
16.01.2018 01:00:00 11,7 6,0 5 3 E 1023,7 20
16.01.2018 00:00:00 12,1 4,8 4 2 ENE 1024,0 20
15.01.2018 23:00:00 12,0 7,5 5 3 ENE 1024,1 20
15.01.2018 22:00:00 12,1 6,2 2 1 ENE 1024,0 20
15.01.2018 21:00:00 12,2 6,9 2 1 NE 1023,7 20
15.01.2018 20:00:00 12,6 7,1 2 1 NE 1023,4 20
15.01.2018 19:00:00 13,0 6,6 2 1 NE 1022,7 20
15.01.2018 18:00:00 14,0 6,9 4 2 E 1022,1 20
15.01.2018 17:00:00 15,8 7,0 2 1 W 1021,7 20
15.01.2018 16:00:00 16,3 6,1 5 3 WSW 1021,8 20
15.01.2018 15:00:00 16,6 6,4 4 2 SW 1021,2 20
15.01.2018 14:00:00 16,5 7,1 5 3 WSW 1021,3 20
15.01.2018 13:00:00 16,3 7,2 8 4 WSW 1021,5 20
15.01.2018 12:00:00 16,4 6,8 5 3 W 1022,0 20
15.01.2018 11:00:00 16,1 4,7 4 2 SSW 1022,3 20
15.01.2018 10:00:00 16,5 2,7 2 1 SE 1022,2 20
15.01.2018 09:00:00 14,5 2,3 4 2 E 1021,6 20
15.01.2018 08:00:00 12,0 3,2 5 3 ENE 1020,8 20
15.01.2018 07:00:00 11,3 4,5 4 2 ENE 1020,3 20
15.01.2018 06:00:00 10,8 4,9 4 2 NE 1019,7 20
15.01.2018 05:00:00 11,4 4,2 4 2 NE 1019,1 20
15.01.2018 04:00:00 10,6 4,3 2 1 NNE 1019,2 20
15.01.2018 03:00:00 12,0 2,9 4 2 ENE 1018,6 20
15.01.2018 02:00:00 12,3 3,0 4 2 E 1018,0 20
15.01.2018 01:00:00 11,6 9,4 4 2 NE 1017,4 20
15.01.2018 00:00:00 11,8 11,0 2 1 ENE 1017,3 20
14.01.2018 23:00:00 11,9 11,7 2 1 ENE 1017,0 20
14.01.2018 22:00:00 12,2 12,0 2 1 NNE 1016,6 20
14.01.2018 21:00:00 12,8 10,8 5 3 E 1016,2 20
14.01.2018 20:00:00 12,9 9,5 4 2 ENE 1015,4 20
14.01.2018 19:00:00 13,4 10,5 2 1 ENE 1015,0 20
14.01.2018 18:00:00 14,0 10,2 4 2 N 1014,2 20
14.01.2018 17:00:00 15,2 10,2 4 2 W 1013,4 20
14.01.2018 16:00:00 15,8 9,9 5 3 W 1012,9 20
14.01.2018 15:00:00 16,3 10,4 5 3 W 1012,6 20
14.01.2018 14:00:00 16,2 11,0 5 3 WSW 1012,3 20
14.01.2018 13:00:00 16,1 11,1 8 4 W 1012,0 20
14.01.2018 12:00:00 15,9 9,4 5 3 SW 1012,0 20
14.01.2018 11:00:00 16,0 8,8 4 2 SW 1012,4 20
14.01.2018 10:00:00 15,4 11,9 4 2 E 1012,9 20
14.01.2018 09:00:00 12,9 11,9 4 2 E 1012,4 20
14.01.2018 08:00:00 11,0 10,8 2 1 ENE 1011,7 20
14.01.2018 07:00:00 11,1 10,6 4 2 ENE 1011,2 20
14.01.2018 06:00:00 10,8 10,6 5 3 E 1011,2 20
14.01.2018 05:00:00 11,1 10,9 4 2 E 1011,1 20
14.01.2018 04:00:00 11,5 11,3 4 2 E 1011,5 20
14.01.2018 03:00:00 11,2 11,0 4 2 ENE 1011,7 20
14.01.2018 02:00:00 11,9 11,5 5 3 ENE 1011,5 20
14.01.2018 01:00:00 11,4 11,2 4 2 E 1011,8 20
14.01.2018 00:00:00 12,2 12,1 4 2 ESE 1013,0 15
13.01.2018 23:00:00 12,2 12,0 9 5 N 1013,2 12
13.01.2018 22:00:00 11,5 11,3 16 9 N 1013,3 8
13.01.2018 21:00:00 12,6 12,4 4 2 SE 1013,3 9
13.01.2018 20:00:00 12,5 12,3 4 2 ENE 1013,9 10
13.01.2018 19:00:00 12,6 12,4 5 3 E 1014,4 15
13.01.2018 18:00:00 12,6 12,6 8 4 NE 1014,2 15
13.01.2018 17:00:00 12,9 12,7 24 13 S 1015,0 15
13.01.2018 16:00:00 17,7 16,7 21 11 S 1013,7 15
13.01.2018 15:00:00 17,9 15,5 8 4 SSE 1013,6 20
13.01.2018 14:00:00 18,0 15,8 8 4 ENE 1014,1 20
13.01.2018 13:00:00 17,3 15,6 4 2 E 1015,3 20
13.01.2018 12:00:00 17,5 14,4 4 2 NE 1016,4 20
13.01.2018 11:00:00 16,6 14,5 4 2 E 1017,8 20
13.01.2018 10:00:00 16,0 15,6 4 2 ESE 1018,4 20
13.01.2018 09:00:00 15,3 15,3 4 2 E 1018,4 20
13.01.2018 08:00:00 14,0 13,8 4 2 ENE 1018,2 20
13.01.2018 07:00:00 13,8 13,8 4 2 ESE 1018,5 20
13.01.2018 06:00:00 13,8 13,6 8 4 NE 1018,8 20
13.01.2018 05:00:00 14,1 14,1 4 2 ENE 1018,9 20
13.01.2018 04:00:00 13,7 13,5 4 2 E 1019,0 20
13.01.2018 03:00:00 13,9 13,7 4 2 NE 1019,3 20
13.01.2018 02:00:00 13,8 13,6 5 3 NE 1019,4 10
13.01.2018 01:00:00 14,1 14,1 5 3 NNE 1019,9 10
13.01.2018 00:00:00 15,0 14,8 2 1 E 1019,9 20
12.01.2018 23:00:00 15,5 15,1 2 1 E 1020,2 20
12.01.2018 22:00:00 15,5 14,0 2 1 ENE 1020,2 20
12.01.2018 21:00:00 16,0 14,1 4 2 ENE 1019,9 20
12.01.2018 20:00:00 16,0 15,3 2 1 ENE 1019,8 20
12.01.2018 19:00:00 16,1 15,1 4 2 ENE 1019,4 20
12.01.2018 18:00:00 16,7 14,6 2 1 ESE 1019,0 20
12.01.2018 17:00:00 17,2 14,6 4 2 ESE 1018,7 20
12.01.2018 16:00:00 17,5 15,3 4 2 ENE 1018,4 20
12.01.2018 15:00:00 17,3 14,9 5 3 E 1018,4 20

tt = Température de l'air
td = dewpoint
ff = Vitesse du vent
dd = Direction du vent
ppp = reduced air pressure
vv = visibility

stations d'obs. à proximité